Vertical_Velocity
5 6 4 2 -1 -3 -5 -11 -16 5 -3 -7 -3 -7 -1 -1 -4 -2 1 3 20 8 -1 -0 4 0 1 0 1 4 -0 1
5 -0 -1 -5 -6 -4 -3 -6 -2 -11 1 -6 -8 -3 -5 1 -2 -6 4 3 6 16 7 5 4 1 1 3 5 2 3 2
1 2 -2 -7 -8 -5 -4 -8 -8 -3 -5 2 -10 -3 2 -3 3 -6 -1 4 4 19 4 14 3 6 2 -0 0 2 3 1
-1 -4 -5 -4 -7 -8 -7 -6 -5 -0 -5 -3 -2 -4 1 -1 5 -0 -9 -1 10 7 9 -3 10 9 1 6 7 -1 2 4
-4 -4 -3 -7 -4 -1 -2 -3 -3 -3 -3 -5 -4 -5 -7 5 -3 3 -1 -5 -4 9 0 -44 10 6 -0 4 5 2 0 -1
-10 -10 -9 -3 -6 -5 -3 0 -1 -1 -2 -6 -2 -4 -3 -2 -3 5 2 1 -3 1 21 -2 -10 20 7 3 2 -8 1 0
-3 -3 -5 -4 -3 -3 -3 -3 -1 -6 -4 -2 -3 -0 -1 -6 5 -7 5 -3 4 17 -3 -0 52 15 9 6 9 7 7 -1
-6 -6 -6 -5 -5 -3 -5 -7 -4 -3 -2 -4 -1 -1 1 -2 2 0 2 2 6 19 -9 29 -22 118 10 4 6 8 3 -2
-4 -5 -8 -5 -3 -5 -9 -3 -14 -8 -3 -0 -1 1 1 3 -1 9 -6 3 8 21 2 9 -9 -66 25 -5 11 8 9 5
-5 -5 -6 -5 -4 -3 -8 -10 -5 4 -2 -4 -1 -0 2 -7 -0 -2 -5 7 7 -3 1 -20 45 -25 142 -8 5 9 7 12
-3 -4 -5 -0 -2 -4 -2 1 -1 -3 -1 -2 -3 0 -2 -0 2 -6 -5 10 2 -8 -7 2 21 -8 -14 -3 2 4 11 15
-5 -2 -4 0 -1 -1 -3 0 -4 3 2 1 -4 -8 -13 3 -5 -8 -3 1 -5 -1 4 -16 5 3 -39 7 -4 9 3 13
-5 -0 -5 -0 -1 -1 -1 -2 -1 -2 -3 -10 -1 -1 8 5 11 -14 6 3 -2 -1 -5 -10 -19 21 92 -22 -2 7 -3 -2
-2 -2 0 -3 -2 -7 -2 3 -4 -5 9 -0 11 18 12 21 0 16 21 18 18 0 0 0 -4 -24 7 37 -43 3 12 5
-3 -2 -1 0 -7 0 0 -0 3 2 5 14 7 10 12 31 31 17 8 1 -0 8 10 8 3 2 45 98 -6 33 51 13
-1 -0 0 -0 -0 -5 1 1 -0 2 -0 7 7 9 11 30 17 17 12 11 8 12 -11 -1 12 -22 -25 -5 4 -20 13 28
-1 -1 -1 0 2 0 -1 0 -0 2 2 6 7 11 10 17 17 12 5 4 15 12 -17 37 -24 -14 23 11 -2 -10 7 14
-1 2 -0 1 -0 2 -0 1 -0 3 3 2 2 2 1 -0 -5 0 6 12 0 -15 -16 -27 -5 17 11 15 13 17 9 2
-1 -0 0 -1 -1 -2 2 2 2 -1 1 -6 -5 -2 -8 -1 4 2 10 8 13 18 -7 -4 4 -3 1 -18 -4 2 -5 -2
Height
3086 3083 3080 3077 3074 3069 3062 3057 3052 3048 3045 3046 3044 3046 3048 3048 3054 3058 3062 3064 3072 3076 3080 3084 3088 3091 3094 3096 3099 3102 3105 3107
3078 3075 3071 3068 3064 3056 3048 3040 3035 3030 3027 3027 3027 3029 3033 3034 3038 3048 3051 3054 3058 3065 3071 3075 3078 3082 3086 3090 3093 3094 3098 3101
3071 3066 3062 3056 3048 3040 3032 3023 3014 3009 3007 3006 3009 3012 3017 3021 3024 3033 3040 3041 3046 3054 3059 3066 3070 3073 3077 3081 3085 3088 3090 3094
3063 3058 3052 3043 3035 3027 3017 3008 2999 2994 2992 2989 2991 2994 3000 3006 3011 3017 3026 3031 3034 3040 3045 3054 3061 3065 3069 3073 3078 3081 3084 3087
3056 3049 3042 3033 3023 3014 3003 2996 2989 2984 2981 2977 2977 2980 2982 2990 2997 3002 3010 3019 3023 3029 3034 3040 3049 3054 3058 3064 3070 3075 3078 3081
3051 3043 3032 3022 3011 3003 2995 2988 2982 2975 2970 2966 2964 2965 2969 2973 2981 2990 2996 3004 3012 3018 3023 3029 3035 3044 3049 3055 3061 3066 3071 3075
3044 3035 3023 3014 3004 2994 2986 2979 2973 2965 2958 2953 2951 2951 2954 2960 2966 2975 2983 2990 2998 3005 3008 3014 3018 3033 3039 3047 3053 3059 3063 3068
3036 3026 3016 3006 2995 2988 2979 2970 2962 2952 2946 2940 2938 2939 2943 2948 2952 2963 2968 2977 2983 2990 2995 2997 3002 3007 3028 3037 3042 3050 3054 3060
3030 3019 3010 2999 2990 2982 2974 2959 2947 2939 2937 2930 2926 2928 2933 2938 2944 2950 2956 2963 2971 2975 2987 2987 2994 2998 3017 3025 3035 3042 3046 3052
3026 3019 3008 2999 2991 2979 2971 2957 2943 2932 2928 2928 2922 2922 2924 2929 2933 2940 2946 2954 2963 2967 2973 2979 2980 2985 2992 3016 3025 3033 3040 3045
3026 3018 3009 3001 2992 2981 2971 2959 2945 2933 2925 2922 2921 2919 2920 2922 2926 2935 2940 2946 2954 2962 2968 2976 2978 2980 2979 3003 3017 3025 3033 3038
3026 3019 3011 3004 2995 2986 2975 2963 2951 2936 2927 2921 2919 2918 2918 2919 2925 2932 2936 2941 2951 2956 2967 2977 2983 2979 2985 2993 3005 3015 3023 3030
3027 3021 3014 3007 3000 2991 2979 2968 2958 2944 2931 2929 2920 2915 2915 2921 2925 2928 2931 2939 2946 2951 2964 2970 2976 2980 2963 2982 2997 3004 3013 3015
3029 3024 3017 3011 3003 2995 2986 2973 2966 2957 2943 2937 2928 2916 2914 2917 2924 2931 2934 2942 2948 2952 2961 2967 2968 2969 2971 2969 2987 2996 3002 3003
3029 3023 3019 3013 3007 2999 2991 2981 2974 2965 2957 2947 2941 2930 2918 2917 2923 2933 2939 2942 2947 2950 2957 2964 2966 2968 2967 2959 2980 2986 2980 2993
3028 3024 3020 3015 3010 3004 2996 2989 2981 2972 2966 2958 2948 2937 2938 2929 2929 2930 2937 2945 2948 2951 2956 2961 2961 2966 2965 2969 2971 2979 2976 2978
3028 3024 3021 3017 3013 3007 3001 2994 2988 2981 2975 2967 2959 2951 2943 2936 2935 2939 2943 2946 2948 2946 2951 2955 2955 2968 2966 2964 2969 2975 2971 2973
3027 3024 3022 3017 3014 3009 3005 2998 2993 2988 2981 2978 2971 2965 2962 2956 2953 2952 2951 2947 2949 2955 2952 2963 2970 2967 2965 2965 2968 2968 2967 2969
3026 3023 3021 3017 3015 3011 3007 3003 2998 2994 2989 2986 2982 2976 2973 2968 2964 2961 2957 2955 2953 2955 2963 2967 2965 2967 2966 2965 2967 2967 2969 2973